Location: Davayat
(45.9471°N, 3.1105°E)
Time: 17:43:15
(UTC+00:00)

H-2A R/B - Pass Details

Date: 01 December 2020
Orbit: 578 x 654 km, 98.5° (Epoch: 17 January)

Event Time Altitude Azimuth Distance (km) Brightness Sun altitude
Rises 17:52:05 0° 4° (N) 2,845 5.3 -18.1°
Reaches altitude 10° 17:54:26 10° 353° (N) 1,950 4.5 -18.5°
Maximum altitude 17:58:06 29° 293° (WNW) 1,118 3.9 -19.2°
Drops below altitude 10° 18:01:49 10° 233° (SW) 1,977 5.6 -19.8°
Sets 18:04:12 0° 223° (SW) 2,892 6.4 -20.2°
